Wind_Speed
26 26 27 29 30 29 26 24 24 20 19 17 14 16 15 13 13 14 13 13 12 9 9 10 10 9 7 7 8 7 8 9 9 8 8 8 6 5 7 8 8 13 11
24 26 25 26 29 32 32 28 25 23 20 18 17 19 18 16 14 15 15 13 11 11 9 11 10 9 10 9 9 9 9 10 9 11 9 9 9 9 9 9 9 10 12
27 25 26 26 28 31 32 30 28 27 23 22 19 18 17 16 15 14 15 14 12 12 11 12 12 12 10 10 10 11 11 11 12 12 10 11 11 10 10 10 11 11 14
30 27 28 26 26 28 30 31 30 30 27 24 23 21 20 19 20 19 18 17 15 14 13 14 16 16 14 13 14 13 14 13 13 14 12 13 15 15 14 14 13 15 15
32 31 27 25 24 26 28 30 31 31 31 30 27 23 23 22 21 21 18 17 16 16 17 17 16 15 17 18 17 16 16 16 13 13 13 12 12 13 14 12 14 13 16
30 36 30 24 25 24 27 29 30 31 33 32 31 30 28 27 24 21 21 20 20 19 19 19 18 18 18 17 19 20 20 19 19 16 15 16 17 16 14 15 14 13 14
24 30 35 33 27 25 25 27 29 30 31 31 30 29 29 26 24 23 22 22 22 21 20 19 19 17 20 20 21 20 21 21 21 21 20 18 17 16 15 16 16 17 16
23 26 32 32 30 28 27 27 27 28 28 29 30 29 27 26 24 24 23 23 24 23 21 21 21 21 21 20 20 22 24 24 24 23 23 20 19 17 19 19 20 21 22
20 23 26 31 31 28 28 28 28 30 29 28 29 29 28 26 25 26 27 26 26 25 24 23 24 24 24 24 26 28 28 27 25 24 24 23 21 21 21 22 22 23 25
18 20 21 24 30 33 27 24 24 26 25 25 26 29 28 27 25 25 31 29 27 24 22 23 25 26 27 24 23 24 25 23 23 24 22 23 22 24 24 23 24 25 25
8 14 20 22 26 31 31 32 29 31 29 28 27 26 27 26 26 29 18 24 19 18 19 22 24 24 24 24 23 23 23 20 21 19 19 20 22 24 23 23 22 23 24
14 13 13 20 26 26 28 31 33 31 31 34 30 28 29 31 27 29 28 23 25 20 19 21 20 20 20 19 18 17 17 16 17 17 18 18 19 19 20 20 23 22 22
16 15 16 15 16 24 27 29 31 31 29 29 31 30 31 32 29 25 23 22 21 20 20 18 17 18 17 16 13 12 11 12 13 13 11 13 13 16 16 16 16 15 14
16 17 15 18 17 18 19 25 24 29 31 29 32 32 32 29 27 25 24 21 20 19 17 15 14 13 15 14 12 10 10 10 11 12 13 13 10 9 9 9 8 8 7
18 18 19 18 18 24 26 28 27 29 32 32 31 32 33 29 27 22 21 21 20 18 16 15 14 13 12 13 12 12 12 12 11 10 8 7 5 5 5 5 5 4 2
21 21 21 20 22 25 29 35 34 32 29 30 28 26 27 22 19 20 21 22 20 19 18 17 15 13 15 15 13 12 10 10 9 8 7 6 4 3 3 2 0 3 4
25 25 26 24 25 28 31 31 38 35 33 32 28 26 24 21 22 20 22 21 19 18 18 17 15 15 16 15 14 13 12 11 11 11 9 6 4 3 2 2 3 3 3
28 28 27 28 28 27 30 32 34 37 37 36 32 29 25 23 21 21 22 21 21 19 17 15 16 14 15 15 15 14 13 12 12 12 10 8 6 6 5 6 6 6 5
24 24 25 22 20 22 22 26 30 31 37 38 35 32 27 24 24 23 23 24 24 22 20 17 16 16 17 17 17 16 15 14 14 13 11 10 9 8 8 9 8 6 5
19 19 15 13 15 19 22 26 29 31 36 35 34 32 28 27 26 26 26 27 23 19 19 19 18 19 20 19 18 16 16 15 16 15 14 12 12 11 11 11 9 8 6
16 15 17 13 13 13 14 25 30 35 34 30 28 28 24 22 23 23 23 24 24 22 21 20 20 23 22 21 19 17 16 14 13 11 12 9 12 14 14 14 13 11 8
15 15 19 20 18 15 5 12 24 28 23 23 22 21 20 20 20 20 20 21 20 20 20 21 21 24 23 22 21 20 20 17 16 14 13 13 12 14 16 16 15 13 11
12 15 15 15 17 21 15 9 14 16 20 22 20 19 18 16 16 16 17 18 19 20 22 21 22 21 21 21 22 21 21 21 20 19 19 18 16 13 15 16 17 16 14
10 13 12 16 17 25 23 17 16 21 24 22 20 18 16 15 14 14 14 14 17 20 23 23 24 22 21 22 23 23 23 23 22 24 22 21 20 16 14 16 17 18 16
7 11 18 14 13 18 16 14 15 20 23 21 19 16 13 14 16 17 16 16 17 18 22 24 24 25 25 25 25 24 24 20 18 23 27 26 25 25 21 17 17 17 18
6 7 10 15 19 20 15 14 15 13 14 15 15 14 12 11 13 17 18 17 17 17 18 20 23 24 24 25 26 25 23 21 21 19 25 28 27 25 25 22 21 20 19
Wind_Direction
222 219 217 216 215 212 210 210 214 217 216 219 222 216 219 227 239 253 252 257 254 264 272 278 278 266 271 279 271 274 274 276 278 287 300 304 316 309 283 282 298 247 263
228 225 222 223 221 221 222 221 218 217 220 218 234 229 229 234 241 246 249 254 250 254 262 279 270 269 265 271 272 270 269 270 277 285 279 286 288 289 284 277 277 267 267
227 225 226 227 228 225 224 223 221 217 221 220 219 221 226 232 242 247 238 242 251 253 255 262 266 262 262 262 264 266 268 270 270 271 272 279 280 280 283 281 276 271 274
227 229 226 226 229 230 226 226 221 219 222 226 228 234 237 242 249 248 240 240 250 254 257 266 268 263 259 260 264 264 263 263 266 270 269 272 274 275 277 277 277 276 276
229 228 231 227 228 229 231 229 227 227 231 234 237 239 240 249 253 241 241 244 245 251 261 264 263 264 259 259 260 261 261 259 253 258 264 266 273 279 284 279 283 284 284
235 231 230 231 231 230 230 232 233 234 236 238 243 245 247 251 246 242 243 247 251 256 261 260 259 263 261 261 260 260 261 261 259 255 259 259 266 274 274 279 277 280 289
244 236 232 234 233 233 232 232 234 236 241 243 243 242 245 243 241 234 236 242 248 250 254 260 262 262 267 265 262 259 257 257 260 264 262 264 270 273 276 279 276 276 278
247 242 235 233 235 232 235 237 237 238 240 243 243 240 238 236 234 231 229 238 244 248 249 257 262 266 267 267 267 265 264 263 258 259 264 270 270 271 275 278 278 280 282
244 242 238 236 234 236 233 236 239 241 241 240 239 237 234 238 242 244 242 241 242 248 249 253 259 266 266 268 267 266 265 263 262 258 258 263 265 273 277 277 278 280 283
248 246 243 241 236 237 239 235 240 238 236 236 238 235 235 242 243 250 254 249 246 245 242 249 256 263 270 267 264 265 264 266 263 264 264 264 266 272 274 273 276 279 282
289 251 243 237 236 236 240 242 247 246 243 240 238 237 237 239 242 239 257 237 244 239 244 252 257 264 263 266 266 263 264 262 260 260 261 262 265 268 271 274 275 281 284
270 268 264 240 236 240 237 241 242 244 242 242 238 234 240 236 239 243 251 248 251 248 253 253 258 263 264 265 266 266 263 258 257 258 260 263 263 265 271 275 283 285 285
265 276 272 262 239 238 239 234 239 239 235 235 236 235 237 236 240 246 244 245 249 245 246 253 258 262 259 259 261 258 255 251 253 256 253 264 264 270 277 282 287 288 288
271 255 268 258 259 257 257 242 232 237 232 232 234 236 233 233 236 234 242 239 237 240 239 240 253 264 247 244 240 238 237 242 249 252 257 262 263 268 276 286 294 304 302
278 264 265 263 254 254 252 246 243 243 237 231 232 235 230 229 230 233 237 234 234 232 231 234 241 245 231 233 232 235 241 246 244 234 227 226 229 252 280 300 313 328 338
276 272 272 269 269 260 247 239 240 242 233 228 232 235 233 230 223 227 227 225 220 223 228 233 233 232 224 229 231 232 227 209 205 202 197 205 226 251 276 292 9 105 94
276 271 270 270 269 263 260 244 237 233 229 223 220 215 220 223 223 224 216 218 217 224 229 226 225 229 221 220 219 211 202 199 196 193 194 202 223 237 223 177 146 130 98
268 268 267 271 265 254 252 251 237 232 226 213 207 208 210 214 218 210 210 212 218 223 218 213 214 213 212 211 205 200 202 201 201 200 201 202 210 217 205 188 163 143 129
262 258 260 257 249 248 243 239 238 235 226 214 205 204 202 204 208 211 211 217 224 228 220 211 206 203 203 201 202 204 202 204 204 207 210 215 217 215 204 191 178 165 153
251 251 238 234 247 246 239 237 235 227 202 202 200 205 200 200 204 209 215 220 222 224 222 213 208 200 200 201 203 202 202 203 208 212 218 224 227 218 204 203 199 194 195
242 230 217 230 247 270 243 237 231 221 202 199 203 209 206 209 211 216 222 227 229 228 222 215 209 200 199 202 206 209 209 205 207 214 219 235 241 235 220 212 208 207 210
235 227 219 239 249 225 243 237 200 192 190 195 197 191 188 195 203 208 214 223 228 226 224 216 208 204 203 207 215 219 223 218 217 223 233 241 244 244 233 225 219 217 223
230 223 222 226 223 214 223 181 185 183 196 197 197 196 195 195 205 212 220 222 226 224 221 212 210 211 214 217 226 230 230 234 237 236 237 240 236 242 235 226 224 224 229
230 213 206 214 213 200 194 182 195 204 207 204 205 209 209 212 215 220 226 229 232 230 225 218 219 220 221 230 233 236 236 240 242 240 233 239 233 238 233 227 228 226 230
222 212 205 206 210 183 191 219 229 213 212 207 209 210 218 227 231 232 232 235 235 235 232 231 229 233 236 239 243 246 246 241 245 246 237 232 236 240 241 227 226 226 233
178 197 195 193 197 203 221 220 217 222 210 211 210 212 221 229 235 235 234 235 232 235 235 238 239 241 245 245 244 243 240 243 246 253 243 236 234 238 233 231 229 232 239
Height
1517 1520 1523 1527 1531 1535 1538 1541 1545 1549 1551 1553 1556 1558 1560 1561 1563 1565 1566 1566 1566 1568 1569 1570 1570 1571 1570 1571 1570 1572 1573 1573 1573 1573 1571 1572 1572 1571 1571 1571 1570 1571 1572
1513 1516 1519 1523 1527 1530 1533 1537 1541 1544 1547 1550 1552 1554 1556 1558 1559 1561 1563 1563 1563 1564 1567 1567 1567 1567 1567 1569 1569 1570 1571 1571 1571 1570 1569 1569 1569 1569 1568 1568 1568 1568 1569
1507 1511 1516 1518 1522 1525 1529 1533 1536 1539 1542 1545 1548 1550 1553 1555 1555 1556 1558 1560 1560 1561 1562 1563 1565 1565 1564 1565 1567 1567 1568 1567 1567 1566 1566 1566 1566 1566 1565 1565 1565 1565 1564
1503 1506 1509 1513 1517 1521 1525 1528 1532 1535 1538 1541 1543 1546 1548 1550 1551 1552 1553 1554 1556 1557 1558 1559 1560 1560 1561 1561 1562 1563 1563 1564 1563 1563 1563 1563 1563 1563 1562 1562 1562 1561 1560
1497 1501 1504 1508 1513 1516 1520 1524 1527 1531 1534 1536 1539 1541 1543 1544 1545 1547 1548 1550 1551 1552 1553 1554 1555 1555 1556 1557 1558 1558 1559 1559 1560 1560 1560 1560 1560 1560 1559 1559 1557 1557 1556
1492 1495 1501 1503 1507 1511 1514 1518 1522 1525 1528 1530 1532 1535 1536 1537 1539 1541 1542 1544 1545 1547 1548 1549 1550 1551 1551 1552 1553 1554 1555 1555 1555 1555 1555 1555 1554 1554 1555 1554 1553 1553 1553
1486 1489 1493 1498 1502 1505 1509 1512 1515 1518 1522 1523 1525 1527 1528 1530 1531 1534 1536 1537 1538 1539 1541 1543 1544 1545 1545 1546 1547 1548 1549 1549 1549 1549 1549 1550 1550 1549 1549 1549 1548 1547 1547
1481 1483 1486 1491 1495 1500 1503 1506 1509 1512 1514 1517 1519 1520 1522 1523 1525 1526 1528 1529 1530 1532 1534 1536 1537 1538 1539 1541 1542 1542 1543 1544 1544 1544 1543 1544 1544 1544 1544 1544 1543 1542 1541
1474 1477 1480 1484 1488 1492 1495 1499 1503 1505 1507 1509 1512 1514 1516 1518 1520 1522 1523 1522 1522 1525 1527 1529 1531 1533 1533 1535 1534 1534 1535 1536 1537 1537 1538 1538 1539 1539 1539 1538 1537 1537 1535
1469 1471 1474 1476 1480 1483 1488 1492 1495 1499 1500 1502 1504 1507 1510 1511 1513 1516 1518 1516 1516 1517 1519 1522 1524 1526 1526 1527 1528 1528 1528 1529 1531 1531 1532 1532 1533 1532 1532 1532 1532 1531 1530
1465 1466 1467 1470 1473 1476 1480 1485 1488 1491 1494 1496 1498 1501 1502 1504 1506 1508 1510 1510 1510 1510 1512 1515 1517 1518 1519 1520 1521 1521 1521 1523 1523 1525 1526 1527 1526 1526 1526 1526 1526 1525 1524
1460 1461 1463 1463 1466 1470 1473 1475 1479 1483 1484 1487 1490 1493 1495 1497 1500 1500 1502 1505 1503 1504 1505 1508 1509 1511 1513 1514 1514 1514 1515 1517 1518 1520 1520 1520 1520 1520 1521 1521 1520 1519 1518
1456 1457 1457 1459 1459 1462 1466 1468 1471 1473 1475 1478 1482 1485 1487 1490 1492 1494 1496 1496 1497 1497 1498 1500 1503 1505 1507 1508 1509 1510 1511 1512 1513 1515 1516 1515 1515 1516 1516 1516 1515 1515 1514
1452 1454 1455 1454 1454 1456 1459 1462 1462 1464 1467 1470 1473 1478 1482 1483 1485 1488 1491 1490 1491 1493 1494 1495 1497 1499 1500 1502 1504 1506 1506 1508 1509 1510 1511 1511 1512 1513 1513 1513 1513 1512 1511
1447 1448 1449 1448 1449 1450 1452 1455 1455 1458 1461 1463 1465 1470 1473 1475 1478 1482 1485 1486 1487 1489 1491 1491 1492 1494 1497 1500 1501 1502 1503 1504 1505 1506 1506 1507 1508 1509 1510 1510 1509 1509 1509
1440 1440 1442 1441 1442 1444 1446 1446 1448 1450 1455 1457 1461 1465 1468 1471 1474 1477 1480 1483 1483 1485 1486 1487 1489 1490 1493 1495 1497 1498 1499 1500 1502 1503 1505 1506 1507 1507 1506 1507 1507 1507 1507
1430 1431 1433 1434 1435 1436 1436 1437 1438 1441 1447 1451 1454 1458 1462 1466 1469 1470 1475 1478 1479 1480 1481 1482 1484 1486 1489 1490 1491 1493 1495 1496 1497 1499 1500 1503 1505 1505 1505 1505 1505 1505 1506
1422 1422 1422 1422 1425 1425 1425 1427 1430 1433 1438 1442 1446 1450 1455 1459 1462 1465 1470 1473 1474 1475 1476 1478 1478 1481 1484 1487 1489 1490 1492 1494 1495 1496 1498 1498 1500 1502 1502 1503 1503 1503 1504
1414 1414 1414 1414 1415 1416 1417 1419 1422 1426 1432 1434 1438 1446 1447 1452 1458 1461 1464 1468 1470 1471 1471 1473 1473 1474 1478 1481 1485 1486 1486 1488 1491 1493 1495 1497 1498 1499 1499 1500 1500 1501 1502
1406 1406 1406 1406 1407 1408 1410 1412 1416 1420 1424 1428 1434 1440 1440 1445 1450 1454 1457 1461 1463 1465 1464 1468 1468 1468 1472 1477 1480 1482 1483 1485 1487 1488 1490 1492 1494 1494 1496 1498 1499 1500 1500
1399 1399 1401 1402 1403 1404 1403 1405 1409 1414 1420 1426 1431 1435 1437 1441 1444 1447 1451 1454 1457 1457 1460 1462 1464 1464 1467 1472 1477 1481 1482 1482 1483 1486 1488 1490 1492 1493 1493 1493 1494 1495 1497
1393 1395 1396 1398 1401 1403 1404 1398 1399 1409 1416 1423 1428 1431 1433 1436 1439 1441 1444 1449 1451 1453 1455 1457 1461 1461 1462 1466 1472 1475 1478 1478 1480 1481 1484 1486 1486 1489 1490 1491 1491 1492 1494
1390 1392 1393 1395 1397 1400 1402 1404 1408 1411 1417 1423 1426 1427 1429 1431 1435 1436 1440 1443 1445 1447 1450 1451 1456 1459 1460 1463 1468 1470 1472 1474 1476 1477 1480 1481 1481 1483 1484 1486 1488 1489 1490
1385 1387 1390 1392 1395 1398 1401 1405 1409 1413 1417 1420 1423 1425 1426 1428 1430 1433 1435 1437 1439 1442 1445 1446 1449 1453 1454 1459 1463 1464 1465 1467 1468 1470 1473 1475 1477 1479 1481 1481 1483 1484 1486
1382 1385 1388 1390 1392 1392 1398 1403 1404 1409 1411 1415 1417 1418 1420 1423 1427 1429 1431 1431 1434 1436 1437 1440 1442 1446 1448 1453 1458 1459 1459 1461 1462 1463 1465 1466 1469 1472 1473 1475 1476 1479 1481
1382 1382 1384 1386 1390 1394 1398 1400 1402 1404 1406 1408 1411 1413 1415 1420 1422 1424 1425 1426 1428 1430 1432 1433 1435 1439 1442 1446 1450 1452 1453 1456 1457 1459 1458 1459 1461 1462 1465 1468 1470 1472 1474